ARIANE 42P DEB, 44514

Orbit data source: Space-Track

ARIANE 42P DEB, 44514 is space debris in LEO originally from a launch on Mon, 10 Aug 1992 UTC launched from the French Guiana (FRGUI). Debris objects in space refer to the collection of defunct objects orbiting the Earth. Examples of debris include non-operational satellites, rocket bodies, and fragments generated from explosions, collisions, or faulty payload assembly.

Loading next visibility...
Identifier
44514, 1992-052M
Orbit
LEO
Last TLE update
4 days ago
Origin
Manufacturer
ArianeGroup
Mission
Spacecraft
Bus & Motor
Unknown
Mass
Unknown
Launch date (UTC)
1992-08-10 (33 years ago)
Launch vehicle
Unknown
Launch site
French Guiana (FRGUI)
Object type
Payload
Rocket body
Debris
Shape & HBR
Unknown
Radar Cross Section
Small (<0.1 m²)

Expand to show TLE details & history

TLE from 4 days ago
0 ARIANE 42P DEB
1 44514U 92052M   25179.96896784  .00001355  00000-0  43439-2 0  9996
2 44514  65.7747 163.4761 0249814 163.2268 197.7206 12.95758854275943
Epoch: 2025-06-28T23:15Z
TLE epoch observation values (Epoch: 2025-06-28T23:15:18.821Z)
Latitude
0.00001°
Longitude
-102.65218°
Altitude
1,463.309 km
Speed
7.046 km/s
True Right ascension
10h 53m 54s
True Declination
0° 00' 00"
Sunlit
Object was in daylight at epoch
Visualization orbit readout
Latitude
-10.68317°
Longitude
73.77675°
Altitude
1,115.753 km
Speed
7.374 km/s
Apparent Right ascension
21h 50m 06s
Apparent Declination
-24° 44' 34"
Sunlit
Object is in daylight
Visualization observer readout
Local Sidereal Time
08:34:53
Azimuth
308.236° NW
Elevation
-68.12°
Doppler factor
1
Orbital elements
Apogee altitude
1,468.577 km
Perigee altitude
1,086.088 km
Semi-major axis
7,655.47 km
Eccentricity
0.02498
Inclination
65.7747°
RAAN
163.4761°
Arg. of periapsis
163.2268°
True anomaly
Unknown
Mean anomaly
197.7206°
Eccentric anomaly
Unknown
Mean motion
3.2403 °/min
Orbital period
111.1 mins
BSTAR
0.0043439
Loading maneuver chart data...
Loading SW <> Apogee altitude chart data...
Loading historical data...
Loading historical data...
Loading historical data...
Loading historical data...
Loading historical data...
Loading historical data...
Loading historical data...

ARIANE 42P DEB Visibility forecast

Observer location: undefined°, undefined°

Span
Click to sort rows by Start time (UTC) header in descending order
Start Az.
Max El. time (UTC)
Max El. Az.
Max El.
End time (UTC)
End Az.
7 mins2025-07-02 21:51:47.561Z125.041° SE2025-07-02 21:54:47.561Z103.022° ESE14.188°2025-07-02 21:58:47.561Z73.108° E
14 mins2025-07-02 23:41:47.561Z199.772° SSW2025-07-02 23:48:47.561Z99.782° ESE44.167°2025-07-02 23:55:47.561Z33.936° NE
11 mins2025-07-03 01:38:47.561Z269.13° W2025-07-03 01:43:47.561Z315.725° NNW25.633°2025-07-03 01:49:47.561Z11.102° NNE
10 mins2025-07-03 07:33:47.561Z354.975° N2025-07-03 07:37:47.561Z39.337° NE26.752°2025-07-03 07:43:47.561Z103.192° ESE
11 mins2025-07-03 09:27:47.561Z318.228° NNW2025-07-03 09:32:47.561Z254.362° W39.945°2025-07-03 09:38:47.561Z171.342° S
|